CHH2561 ZSHC-RCMT

Flight info

Callsign CHH2561
Flight time 0h 46m
Altitude 22600
Route K0870S0980 UGA81D UGAGO A470 AKAVO W644 LEVGU DCT
Aircraft B38M/M-SDE1FGHILORVWXY/HB1

Departure

Time 2026-05-04 15:28
Airport Hangzhou Xiaoshan International Airport (ZSHC)

Arrival

Time 2026-05-04 16:14
Airport Matsu Beigan Airport (RCMT)
Time Latitude Longitude Altitude Speed Heading
2026-05-04 15:06 30.24338 120.43063 37 ft 0 kts 152°
2026-05-04 15:17 30.24339 120.43063 37 ft 0 kts 152°
2026-05-04 15:19 30.24338 120.43063 37 ft 0 kts 152°
2026-05-04 15:19 30.24344 120.43060 37 ft 2 kts 152°
2026-05-04 15:19 30.24370 120.43044 37 ft 2 kts 152°
2026-05-04 15:20 30.24379 120.43040 38 ft 1 kts 152°
2026-05-04 15:20 30.24391 120.43029 38 ft 2 kts 120°
2026-05-04 15:20 30.24396 120.43012 38 ft 2 kts 92°
2026-05-04 15:20 30.24394 120.42997 38 ft 0 kts 67°
2026-05-04 15:21 30.24391 120.42991 38 ft 1 kts 63°
2026-05-04 15:21 30.24390 120.42989 38 ft 0 kts 63°
2026-05-04 15:23 30.24392 120.42992 38 ft 2 kts 63°
2026-05-04 15:23 30.24406 120.43019 38 ft 9 kts 61°
2026-05-04 15:23 30.24460 120.43137 36 ft 20 kts 63°
2026-05-04 15:23 30.24525 120.43297 36 ft 15 kts 91°
2026-05-04 15:24 30.24311 120.43473 35 ft 25 kts 152°
2026-05-04 15:24 30.23952 120.43684 38 ft 28 kts 153°
2026-05-04 15:25 30.23778 120.43787 38 ft 27 kts 152°
2026-05-04 15:25 30.23599 120.43892 37 ft 28 kts 153°
2026-05-04 15:25 30.23431 120.44003 35 ft 27 kts 123°
2026-05-04 15:26 30.23553 120.44369 38 ft 27 kts 63°
2026-05-04 15:26 30.23646 120.44579 38 ft 29 kts 63°
2026-05-04 15:26 30.23813 120.44995 38 ft 24 kts 100°
2026-05-04 15:27 30.23773 120.45043 38 ft 0 kts 155°
2026-05-04 15:27 30.23772 120.45044 38 ft 1 kts 155°
2026-05-04 15:28 30.23638 120.44994 38 ft 18 kts 243°
2026-05-04 15:28 30.23482 120.44646 38 ft 91 kts 243°
2026-05-04 15:28 30.22515 120.42482 708 ft 180 kts 241°
2026-05-04 15:29 30.21951 120.41234 1683 ft 177 kts 238°
2026-05-04 15:30 30.18082 120.36375 3814 ft 241 kts 228°
2026-05-04 15:30 30.14210 120.31465 5295 ft 306 kts 229°
2026-05-04 15:31 30.11176 120.27628 6275 ft 343 kts 230°
2026-05-04 15:31 30.09542 120.25560 6761 ft 358 kts 229°
2026-05-04 15:32 30.05928 120.18108 8224 ft 359 kts 258°
2026-05-04 15:32 30.04860 120.12486 9198 ft 362 kts 259°
2026-05-04 15:33 30.03710 120.06809 10176 ft 366 kts 258°
2026-05-04 15:34 30.01469 119.98203 11648 ft 386 kts 248°
2026-05-04 15:34 30.00232 119.95458 12132 ft 390 kts 243°
2026-05-04 15:34 29.97442 119.90082 13102 ft 393 kts 241°
2026-05-04 15:35 29.94619 119.84651 14089 ft 397 kts 242°
2026-05-04 15:35 29.93211 119.81870 14587 ft 400 kts 242°
2026-05-04 15:35 29.91825 119.79104 15077 ft 402 kts 242°
2026-05-04 15:36 29.89027 119.73505 16066 ft 405 kts 242°
2026-05-04 15:36 29.87468 119.70809 16557 ft 408 kts 234°
2026-05-04 15:36 29.85431 119.68500 17048 ft 415 kts 218°
2026-05-04 15:37 29.82863 119.66954 17534 ft 423 kts 202°
2026-05-04 15:37 29.79963 119.66213 18021 ft 431 kts 190°
2026-05-04 15:37 29.76968 119.65930 18507 ft 434 kts 187°
2026-05-04 15:37 29.73949 119.65740 18983 ft 434 kts 187°
2026-05-04 15:38 29.70933 119.65556 19454 ft 435 kts 188°
2026-05-04 15:38 29.67887 119.65362 19911 ft 436 kts 188°
2026-05-04 15:38 29.64851 119.65160 20380 ft 438 kts 189°
2026-05-04 15:38 29.61795 119.64957 20851 ft 440 kts 188°
2026-05-04 15:39 29.58769 119.64816 21311 ft 440 kts 187°
2026-05-04 15:39 29.55672 119.64727 21780 ft 442 kts 187°
2026-05-04 15:39 29.49526 119.64515 22671 ft 443 kts 189°
2026-05-04 15:40 29.46432 119.64346 22806 ft 445 kts 189°
2026-05-04 15:40 29.43343 119.64157 22818 ft 444 kts 189°
2026-05-04 15:40 29.40267 119.63965 22821 ft 441 kts 189°
2026-05-04 15:40 29.37186 119.63769 22819 ft 443 kts 190°
2026-05-04 15:41 29.34090 119.63573 22816 ft 442 kts 190°
2026-05-04 15:41 29.31010 119.63380 22816 ft 443 kts 189°
2026-05-04 15:41 29.27939 119.63188 22810 ft 442 kts 190°
2026-05-04 15:41 29.24877 119.62998 22810 ft 442 kts 190°
2026-05-04 15:42 29.21801 119.62807 22806 ft 443 kts 190°
2026-05-04 15:42 29.18693 119.62617 22803 ft 442 kts 189°
2026-05-04 15:42 29.15619 119.62429 22801 ft 442 kts 190°
2026-05-04 15:42 29.12554 119.62240 22800 ft 446 kts 190°
2026-05-04 15:43 29.09407 119.62041 22796 ft 454 kts 190°
2026-05-04 15:43 29.06255 119.61843 22797 ft 455 kts 190°
2026-05-04 15:43 29.03101 119.61649 22799 ft 455 kts 190°
2026-05-04 15:43 28.99893 119.61447 22800 ft 455 kts 190°
2026-05-04 15:44 28.96735 119.61253 22801 ft 452 kts 190°
2026-05-04 15:44 28.93587 119.61059 22806 ft 455 kts 189°
2026-05-04 15:44 28.90434 119.60864 22815 ft 454 kts 189°
2026-05-04 15:44 28.87263 119.60669 22823 ft 454 kts 189°
2026-05-04 15:45 28.84095 119.60474 22827 ft 455 kts 189°
2026-05-04 15:45 28.80940 119.60278 22829 ft 453 kts 189°
2026-05-04 15:45 28.77811 119.60084 22828 ft 453 kts 189°
2026-05-04 15:45 28.74648 119.59888 22834 ft 455 kts 190°
2026-05-04 15:46 28.71471 119.59690 22833 ft 454 kts 189°
2026-05-04 15:46 28.68335 119.59495 22833 ft 454 kts 190°
2026-05-04 15:46 28.65131 119.59295 22836 ft 455 kts 190°
2026-05-04 15:46 28.61994 119.59101 22834 ft 454 kts 190°
2026-05-04 15:47 28.58809 119.58905 22828 ft 454 kts 190°
2026-05-04 15:47 28.55686 119.58714 22823 ft 453 kts 189°
2026-05-04 15:47 28.52524 119.58517 22829 ft 457 kts 189°
2026-05-04 15:47 28.49363 119.58323 22831 ft 452 kts 189°
2026-05-04 15:48 28.46179 119.58128 22831 ft 455 kts 189°
2026-05-04 15:48 28.43029 119.57940 22835 ft 455 kts 189°
2026-05-04 15:48 28.36745 119.57595 22739 ft 447 kts 189°
2026-05-04 15:49 28.33653 119.57432 22742 ft 447 kts 189°
2026-05-04 15:49 28.30526 119.57263 22744 ft 446 kts 189°
2026-05-04 15:49 28.27437 119.57095 22749 ft 449 kts 189°
2026-05-04 15:49 28.24331 119.56925 22742 ft 447 kts 189°
2026-05-04 15:50 28.21194 119.56749 22746 ft 447 kts 189°
2026-05-04 15:50 28.18095 119.56573 22755 ft 447 kts 189°
2026-05-04 15:50 28.14997 119.56338 22740 ft 445 kts 190°
2026-05-04 15:50 28.11885 119.56132 22668 ft 447 kts 189°
2026-05-04 15:51 28.08777 119.55974 22659 ft 447 kts 188°
2026-05-04 15:51 28.05644 119.55894 22655 ft 448 kts 187°
2026-05-04 15:51 28.02521 119.55866 22659 ft 448 kts 187°
2026-05-04 15:51 27.99419 119.55856 22530 ft 449 kts 187°
2026-05-04 15:52 27.96339 119.55852 22171 ft 426 kts 187°
2026-05-04 15:52 27.93435 119.55853 21841 ft 412 kts 187°
2026-05-04 15:52 27.90566 119.55838 21552 ft 414 kts 187°
2026-05-04 15:52 27.87705 119.55823 21227 ft 411 kts 187°
2026-05-04 15:53 27.84811 119.55811 20896 ft 408 kts 187°
2026-05-04 15:53 27.81998 119.55804 20571 ft 406 kts 187°
2026-05-04 15:53 27.79177 119.55798 20242 ft 405 kts 188°
2026-05-04 15:53 27.76371 119.55779 19910 ft 404 kts 187°
2026-05-04 15:54 27.73529 119.55783 19584 ft 403 kts 187°
2026-05-04 15:54 27.70756 119.55830 19257 ft 400 kts 186°
2026-05-04 15:54 27.67966 119.55833 18936 ft 401 kts 187°
2026-05-04 15:54 27.65162 119.55813 18610 ft 398 kts 187°
2026-05-04 15:55 27.62415 119.55778 18285 ft 397 kts 187°
2026-05-04 15:55 27.59670 119.55743 17966 ft 394 kts 187°
2026-05-04 15:55 27.56914 119.55709 17652 ft 394 kts 187°
2026-05-04 15:55 27.54195 119.55684 17322 ft 390 kts 187°
2026-05-04 15:56 27.51452 119.55654 17009 ft 391 kts 187°
2026-05-04 15:56 27.48753 119.55631 16689 ft 391 kts 186°
2026-05-04 15:56 27.46047 119.55612 16349 ft 388 kts 186°
2026-05-04 15:56 27.43308 119.55595 16008 ft 388 kts 186°
2026-05-04 15:57 27.40628 119.55577 15680 ft 385 kts 186°
2026-05-04 15:57 27.37977 119.55569 15345 ft 383 kts 186°
2026-05-04 15:57 27.35302 119.55559 15034 ft 382 kts 185°
2026-05-04 15:57 27.32597 119.55603 14719 ft 385 kts 184°
2026-05-04 15:58 27.29960 119.55662 14401 ft 383 kts 184°
2026-05-04 15:58 27.27302 119.55834 14092 ft 384 kts 178°
2026-05-04 15:58 27.24657 119.56541 13756 ft 391 kts 165°
2026-05-04 15:58 27.22219 119.57948 13439 ft 395 kts 151°
2026-05-04 15:59 27.19929 119.59659 13123 ft 395 kts 150°
2026-05-04 15:59 27.17693 119.61346 12780 ft 389 kts 151°
2026-05-04 15:59 27.15417 119.62940 12435 ft 383 kts 155°
2026-05-04 15:59 27.13102 119.64485 12111 ft 381 kts 154°
2026-05-04 16:00 27.10860 119.65969 11759 ft 375 kts 153°
2026-05-04 16:00 27.08612 119.67479 11413 ft 373 kts 151°
2026-05-04 16:00 27.06417 119.69007 11067 ft 369 kts 151°
2026-05-04 16:00 27.04246 119.70521 10722 ft 366 kts 152°
2026-05-04 16:01 27.02083 119.72008 10375 ft 363 kts 153°
2026-05-04 16:01 26.99921 119.73433 10017 ft 357 kts 155°
2026-05-04 16:01 26.97689 119.74616 9696 ft 353 kts 159°
2026-05-04 16:01 26.95436 119.75657 9361 ft 351 kts 161°
2026-05-04 16:02 26.93162 119.76656 9037 ft 349 kts 161°
2026-05-04 16:02 26.90895 119.77683 8704 ft 351 kts 161°
2026-05-04 16:02 26.86373 119.79755 8043 ft 352 kts 159°
2026-05-04 16:03 26.84113 119.80817 7704 ft 352 kts 158°
2026-05-04 16:03 26.83453 119.81128 7605 ft 353 kts 158°
2026-05-04 16:03 26.81845 119.81898 7298 ft 353 kts 155°
2026-05-04 16:03 26.79587 119.82983 6955 ft 352 kts 155°
2026-05-04 16:04 26.77344 119.84045 6611 ft 349 kts 156°
2026-05-04 16:04 26.72857 119.86148 5934 ft 346 kts 156°
2026-05-04 16:04 26.70638 119.87180 5604 ft 345 kts 156°
2026-05-04 16:05 26.68437 119.88208 5265 ft 343 kts 156°
2026-05-04 16:05 26.66231 119.89230 4926 ft 342 kts 157°
2026-05-04 16:05 26.61865 119.91277 4224 ft 331 kts 154°
2026-05-04 16:06 26.59777 119.92271 3881 ft 321 kts 154°
2026-05-04 16:07 26.55133 119.94501 3055 ft 303 kts 156°
2026-05-04 16:08 26.53207 119.95370 2714 ft 297 kts 156°
2026-05-04 16:08 26.47290 119.98104 1578 ft 264 kts 155°
2026-05-04 16:09 26.44110 119.99592 1400 ft 225 kts 155°
2026-05-04 16:09 26.42671 120.00269 1401 ft 209 kts 150°
2026-05-04 16:10 26.40254 120.01429 1379 ft 169 kts 153°
2026-05-04 16:11 26.37148 120.02866 1399 ft 156 kts 148°
2026-05-04 16:11 26.36134 120.03336 1398 ft 157 kts 150°
2026-05-04 16:12 26.33111 120.04751 1404 ft 159 kts 153°
2026-05-04 16:12 26.29864 120.05244 1394 ft 178 kts 215°
2026-05-04 16:13 26.27892 120.03522 1196 ft 180 kts 210°
2026-05-04 16:13 26.25802 120.02199 659 ft 166 kts 203°
2026-05-04 16:14 26.23852 120.01101 160 ft 150 kts 203°
2026-05-04 16:14 26.22192 120.00256 6 ft 7 kts 190°
2026-05-04 16:15 26.22413 120.00285 36 ft 0 kts 191°